changsha , China , ASIA

  • Saturday
    August 17

      Sunny

      84 °F

      East

       

  • Sunday
    August 18

    Sunny  Sunny

    100 °F  84 °F

    East  East

        

  • Monday
    August 19

    Sunny  Sunny

    100 °F  84 °F

    East  East

        

  • Tuesday
    August 20

    Sunny  Sunny

    100 °F  84 °F

    East  East

        

  • Wednesday
    August 21

    Sunny  Sunny

    100 °F  84 °F

    East  East

        

  • Thursday
    August 22

    Sunny  Sunny

    100 °F  84 °F

    East  East

        

  • Friday
    August 23

    Sunny  Sunny

    100 °F  84 °F

    East  East

        

Date   Weather Temperature Humidity Total_rain Visibility Wind
23:00 Sunny 88°F 82% 0mm 999.9km Southeast  2.1m/s
02:00 Sunny 87°F 88.4% 0mm 999.9km Southwest  1.9m/s
05:00 Sunny 85°F 93.6% 0mm 999.9km Southeast  1.5m/s
08:00 Sunny 89°F 82.5% 0mm 999.9km Southeast  1.1m/s
11:00 Sunny 96°F 54.7% 0mm 999.9km Southeast  1.9m/s
14:00 Sunny 100°F 46.4% 0mm 999.9km Southeast  2.5m/s
17:00 Sunny 97°F 53.7% 0mm 999.9km Northeast  3.3m/s
20:00 Sunny 90°F 45.3% 0mm 999.9km Northeast  2.2m/s
23:00 Sunny 87°F 81.7% 0mm 999.9km Southeast  1.7m/s
02:00 Sunny 85°F 86.2% 0mm 999.9km Southeast  1.7m/s
05:00 Sunny 85°F 90.4% 0mm 999.9km Northeast  2.2m/s
08:00 Sunny 88°F 75.5% 0mm 999.9km Northeast  1.9m/s
11:00 Sunny 97°F 46.8% 0mm 999.9km Southeast  2.6m/s
14:00 Sunny 100°F 39.3% 0mm 999.9km Northeast  2.8m/s
17:00 Sunny 98°F 52.1% 0mm 999.9km Northeast  3.1m/s
20:00 Sunny 92°F 42.9% 0mm 999.9km Southeast  2.0m/s
23:00 Sunny 89°F 79.8% 0mm 999.9km Southeast  1.7m/s
02:00 Sunny 86°F 86.6% 0mm 999.9km Northeast  1.9m/s
05:00 Sunny 85°F 91.2% 0mm 999.9km Northeast  1.9m/s
08:00 Sunny 88°F 78% 0mm 999.9km Northeast  2.5m/s
11:00 Sunny 97°F 62.3% 0mm 999.9km Northeast  2.4m/s
14:00 Sunny 100°F 51% 0mm 999.9km Northeast  3.6m/s
17:00 Sunny 97°F 49.9% 0mm 999.9km Northeast  3.5m/s
20:00 Sunny 94°F 44.5% 0mm 999.9km Southeast  2.3m/s
23:00 Sunny 88°F 76.5% 0mm 999.9km Southeast  1.8m/s
02:00 Sunny 86°F 85.4% 0mm 999.9km Northeast  1.6m/s
05:00 Sunny 85°F 91% 0mm 999.9km Northeast  2.5m/s
08:00 Sunny 88°F 78.7% 0mm 999.9km Northeast  1.9m/s
11:00 Sunny 96°F 58.3% 0mm 999.9km Northeast  2.7m/s
14:00 Sunny 100°F 46.7% 0mm 999.9km Northeast  2.6m/s
17:00 Sunny 97°F 51.2% 0mm 999.9km Northeast  3.3m/s
20:00 Sunny 92°F 44.1% 0mm 999.9km Southeast  2.6m/s
23:00 Sunny 91°F 83.8% 0mm 999.9km Southeast  2.3m/s
02:00 Sunny 86°F 88.1% 0mm 999.9km Southeast  1.9m/s
05:00 Sunny 85°F 91.9% 0mm 999.9km Southeast  1.1m/s
08:00 Sunny 89°F 81.8% 0mm 999.9km Southeast  1.9m/s
11:00 Sunny 95°F 61.9% 0mm 999.9km Northeast  1.8m/s
14:00 Sunny 100°F 63.7% 0mm 999.9km Southeast  2.9m/s
17:00 Sunny 93°F 61.1% 0mm 999.9km Northeast  4.0m/s
20:00 Sunny 93°F 58.4% 0mm 999.9km Southeast  2.4m/s
23:00 Sunny 90°F 83.9% 0mm 999.9km Northeast  2.4m/s
02:00 Sunny 86°F 96.1% 0mm 999.9km Southeast  1.9m/s
05:00 Sunny 85°F 95.8% 0mm 999.9km Northwest  1.8m/s
08:00 Sunny 91°F 88.8% 0mm 999.9km Southeast  2.2m/s
11:00 Sunny 100°F 77.9% 0mm 999.9km Northwest  2.7m/s
14:00 Sunny 99°F 75.4% 0mm 999.9km Northeast  3.4m/s
17:00 Sunny 95°F 72.2% 0mm 999.9km Northeast  2.3m/s
20:00 Sunny 90°F 65.3% 0mm 999.9km Southeast  1.9m/s
23:00 Sunny 89°F 88.8% 0mm 999.9km Northwest  2.4m/s
02:00 Sunny 87°F 98% 0mm 999.9km Northeast  1.8m/s
05:00 Sunny 85°F 94.7% 0mm 999.9km Northwest  2.0m/s